Location: Klickitat County Star Party
(45.8642°N, 120.6771°W)
Time: 20:01:57
(UTC-07:00)

Tiangong 2 - Visible Passes

Search period start: 22 March 2019 00:00
Search period end: 01 April 2019 00:00
Orbit: 380 x 390 km, 42.8° (Epoch: 22 March)

Date Brightness Start Highest point End Pass type
(mag) Time Alt. Az. Time Alt. Az. Time Alt. Az.
22 Mar 2.9 05:24:08 20° S 05:24:08 20° S 05:25:46 10° SSE visible
23 Mar 3.5 06:00:03 10° SSW 06:00:03 10° SSW 06:00:10 10° SSW visible
30 Mar 3.1 20:27:09 10° S 20:28:41 13° SSE 20:28:57 13° SE visible
31 Mar 2.4 21:02:45 10° SW 21:04:56 26° S 21:04:56 26° S visible
